Regional Weather Roundup
Issued by NWS

Home | Current Version | Previous Version | Text Only | Print | Product List | Glossary Off
Versions: 1 2 3 4 5 6 7 8 9 10 11 12 13 14 15 16 17 18 19 20 21 22 23 24 25 26 27 28 29 30 31 32 33 34 35 36 37 38 39 40 41 42 43 44 45 46 47 48 49 50

000
ASUS45 KTFX 210710
RWRMT
MONTANA REGIONAL WEATHER ROUNDUP
NATIONAL WEATHER SERVICE GREAT FALLS MT
1200 AM MST TUE FEB 21 2017

NOTE: "FAIR" INDICATES FEW OR NO CLOUDS BELOW 12000 FEET WITH NO
SIGNIFICANT WEATHER AND/OR OBSTRUCTIONS TO VISIBILITY.

MTZ001>007-043-210800-
WEST OF THE DIVIDE

CITY           SKY/WX    TMP DP  RH WIND       PRES   REMARKS
KALISPELL      CLOUDY    37  31  78 SE8       29.67R WCI  31
MISSOULA       FOG       34  34 100 SW5       29.73F VSB 3/4
BUTTE          CLOUDY    35  26  69 SE6       29.72F WCI  30
MULLAN PASS    MOCLDY    26  24  92 SW9       29.65S WCI  17
ANACONDA         N/A     43  25  49 SW17G25   29.69F
DEER LODGE       N/A     36  30  80 SW5       29.73S
EUREKA           N/A     41  30  65 SE12G17   29.65R
HAMILTON         N/A     34  32  93 CALM      29.72S
LIBBY            N/A     43  28  56 SE10      29.64F
PLAINS           N/A     37  28  70 CALM      29.72R
RONAN            N/A     39  32  76 SE6       29.75S
THOMPSON FALLS   N/A     32  30  92 CALM      29.78R
$$

MTZ008-052>055-210800-
SOUTHWEST MONTANA

CITY           SKY/WX    TMP DP  RH WIND       PRES   REMARKS
BOZEMAN        CLOUDY    39  31  72 SW5       29.74S
DILLON         CLOUDY    37  29  72 SW7       29.75S WCI  32
W YELLOWSTONE  LGT SNOW  32  32 100 SW15G21   29.83F WCI  22
ENNIS          CLOUDY    43  30  61 S17G30    29.80F
THREE FORKS      N/A     47  47 100 SW2       29.74F
TWIN BRIDGES     N/A     37  28  70 SE5       29.77F
$$

MTZ009-010-012-014-046-048-049-054-210800-
EAST SLOPES AND CENTRAL MONTANA

CITY           SKY/WX    TMP DP  RH WIND       PRES   REMARKS
CUT BANK       CLEAR     38  25  59 W24       29.57R WCI  27
GREAT FALLS    CLEAR     38  30  73 SW17      29.64R WCI  28
MALMSTROM AFB  CLEAR     37  32  80 SW17      29.65R WCI  28
HELENA         PTCLDY    40  32  73 CALM      29.69S
AUGUSTA          N/A     35  29  78 W14       29.64R WCI  26
BOWMANS CRNR     N/A     35  31  84 S12       29.65R WCI  27
CHOTEAU          N/A     41  28  60 SW20G26   29.62R
CONRAD           N/A     38  30  73 S7        29.64R
POWER            N/A     36  31  82 SW16      29.62S WCI  26
RAYNESFORD       N/A     32  28  86 CALM      29.67R
ULM            MOCLDY    38  31  76 MISG      29.65F
$$

MTZ011-013-016-021-045-047-050-051-210800-
NORTH CENTRAL MONTANA

CITY           SKY/WX    TMP DP  RH WIND       PRES   REMARKS
HAVRE          CLEAR     37  33  85 SW14      29.60S WCI  28
LEWISTOWN      CLOUDY    38  29  70 SW13      29.67S WCI  30
N BAR RANCH      N/A     41  25  52 SW12      29.70S
CHINOOK          N/A     37  34  87 W5        29.60S
DENTON           N/A     32  28  85 S12       29.62R WCI  23
FORT BENTON      N/A     41  32  70 N5        29.65R
GEYSER           N/A     35  30  80 W16       29.64R WCI  26
GRASS RANGE      N/A     40  32  71 W16       29.63R
JUDITH GAP       N/A     38  29  71 MISG      29.67S
ROY              N/A     45  32  60 MISG      29.62S
STANFORD         N/A     39  28  64 W10       29.65S
WINIFRED         N/A     40  32  72 SW10G21   29.64R
$$

MTZ017>020-022>027-061-062-210800-
NORTHEAST MONTANA

CITY           SKY/WX    TMP DP  RH WIND       PRES   REMARKS
GLASGOW        CLEAR     38  34  85 W12       29.61S WCI  30
JORDAN           N/A     34  29  82 W6        29.64S WCI  29
SIDNEY         CLEAR     35  27  72 CALM      29.64S
WOLF POINT     PTCLDY    34  31  88 W6        29.63R WCI  29
PLENTYWOOD       N/A     37  30  75 SE5       29.61R
POPLAR           N/A     36  32  87 N3        29.63R
$$

MTZ028>42-056>058-210800-
SOUTHCENTRAL AND SOUTHEAST MONTANA

CITY           SKY/WX    TMP DP  RH WIND       PRES   REMARKS
BAKER          CLOUDY    35  27  72 W6        29.69R WCI  30
BILLINGS       MOCLDY    47  32  56 SW15      29.70S
LIVINGSTON     CLOUDY    48  29  47 SW24G31   29.70F
MILES CITY     PTCLDY    48  29  47 W10       29.68R
BIG TIMBER     CLOUDY    45  30  57 W7G13     29.73F
FORSYTH          N/A     48  30  49 SW6       29.69S
HARLOWTON      MOCLDY    38  30  72 W14       29.69F WCI  30
LAUREL           N/A     46  28  49 SW1       29.73R
$$

REGIONAL REPORTS...DAKOTAS

CITY           SKY/WX    TMP DP  RH WIND       PRES   REMARKS
WILLISTON      CLOUDY    38  30  73 S6        29.63F
MINOT          CLOUDY    40  30  67 CALM      29.67S
DICKINSON      CLOUDY    38  26  62 S10       29.63S WCI  31
BEACH            N/A    N/A N/A N/A MISG        N/A
CROSBY         LGT RAIN  34  34 100 E3        29.65F
TIOGA          LGT RAIN  37  37 100 S6        29.66S
WATFORD CITY     N/A     32  28  86 N5        29.66R
BISMARCK       CLOUDY    36  32  85 E6        29.72F WCI  31
GRAND FORKS    CLEAR     30  25  81 S6        29.74R WCI  24
FARGO          CLEAR     33  32  96 S8        29.77R WCI  26
BUFFALO SD       N/A     49  31  49 W17       29.63R
RAPID CITY     MOCLDY    59  28  30 SW23G33   29.76F
$$

REGIONAL REPORTS...WYOMING/IDAHO/WASHINGTON

CITY           SKY/WX    TMP DP  RH WIND       PRES   REMARKS
GILLETTE       CLEAR     47  31  53 SW32G45   29.77R
SHERIDAN       PTCLDY    52  27  38 SW14G20   29.74R
BUFFALO WY     PTCLDY    51  26  37 N16G23    29.78F
CODY           CLOUDY    46  31  55 W14G25    29.78F
YELLOWSTONE LA   N/A     30  30 100 VRB3      29.88F
IDAHO FALLS    LGT RAIN  37  37 100 S9        29.91R WCI  30
SALMON         CLOUDY    39  34  81 S7        29.75S
BOISE          CLOUDY    45  41  86 SE15      29.79S
SPOKANE        CLOUDY    35  33  92 SE7       29.71S WCI  29
$$

REGIONAL REPORTS...ALBERTA

CITY           SKY/WX    TMP DP  RH WIND       PRES   REMARKS
EDMONTON       CLOUDY    30  27  86 CALM      29.63S
CALGARY        CLOUDY    30  28  93 N7        29.56S FOG     WCI  23
LETHBRIDGE     MOCLDY    30 N/A N/A SW9       29.55R WCI  22
MEDICINE HAT   LGT RAIN  36  30  80 E6        29.54S WCI  31
CARDSTON         N/A     28  27  93 E2          N/A
MILK RIVER       N/A     34  28  80 S9          N/A  WCI  26
ONEFOUR          N/A     34  30  86 NW3         N/A
$$

REGIONAL REPORTS...SASKATCHEWAN

CITY           SKY/WX    TMP DP  RH WIND       PRES   REMARKS
SWIFT CURRENT  CLOUDY    32  30  93 E8        29.56F WCI  25
SASKATOON      CLOUDY    32  30  93 NW5       29.66R
CYPRESS HILLS    N/A     32  27  80 S6          N/A  WCI  26
VAL MARIE        N/A     27  25  93 SW3         N/A
ROCKGLEN         N/A     36  25  64 CALM        N/A
ASSINIBOIA       N/A     30  28  93 E3          N/A
$$



USA.gov is the U.S. government's official web portal to all federal, state and local government web resources and services.